When you browse on this site, cookies collect data to enhance your experience and personalize the content and advertising you see.
Visit our Privacy Policy to learn more. By continuing to use the site, you agree to this use of cookies and data.
  • In Latvia
  • List of Countries
  • For 7 days
  • Water Temperature
  • Satellite Maps
  • Weather Map
  • Weather Widgets
  • user-avatar
    Login

    Hourly Weather Newcastle

    Today, 27 May, Monday

    Time Temperature Precipitation Wind Pressure Humidity
    00:00 +11°C° 0 mm 4 mps 759 mmHg 74%
    01:00 +11°C° 0 mm 4 mps 759 mmHg 76%
    02:00 +11°C° 0 mm 4 mps 759 mmHg 75%
    03:00 +9°C° 0 mm 5 mps 759 mmHg 73%
    04:00 +11°C° 0 mm 4 mps 758 mmHg 73%
    05:00 +10°C° 0 mm 5 mps 758 mmHg 71%
    06:00 +10°C° 0 mm 5 mps 758 mmHg 68%
    07:00 +10°C° 0 mm 6 mps 758 mmHg 65%
    08:00 +13°C° 0 mm 6 mps 757 mmHg 58%
    09:00 +14°C° 0 mm 7 mps 757 mmHg 51%
    10:00 +16°C° 0 mm 7 mps 757 mmHg 44%
    11:00 +17°C° 0 mm 7 mps 756 mmHg 42%
    12:00 +18°C° 0 mm 8 mps 756 mmHg 39%
    13:00 +20°C° 0 mm 8 mps 755 mmHg 36%
    14:00 +18°C° 0.1 mm 9 mps 755 mmHg 42%
    15:00 +17°C° 0.1 mm 9 mps 756 mmHg 48%
    16:00 +14°C° 0.1 mm 10 mps 756 mmHg 54%
    17:00 +13°C° 0 mm 9 mps 757 mmHg 53%
    18:00 +12°C° 0 mm 8 mps 758 mmHg 51%
    19:00 +10°C° 0 mm 8 mps 758 mmHg 50%
    20:00 +10°C° 0 mm 7 mps 759 mmHg 49%
    21:00 +9°C° 0 mm 7 mps 759 mmHg 47%
    22:00 +9°C° 0 mm 7 mps 760 mmHg 46%
    23:00 +9°C° 0 mm 7 mps 760 mmHg 47%

    Tomorrow, 28 May, Tuesday

    Time Temperature Precipitation Wind Pressure Humidity
    00:00 +8°C° 0 mm 6 mps 760 mmHg 48%
    01:00 +8°C° 0 mm 6 mps 760 mmHg 48%
    02:00 +8°C° 0 mm 6 mps 760 mmHg 50%
    03:00 +7°C° 0 mm 6 mps 760 mmHg 52%
    04:00 +7°C° 0 mm 5 mps 760 mmHg 54%
    05:00 +7°C° 0 mm 5 mps 760 mmHg 55%
    06:00 +7°C° 0 mm 5 mps 761 mmHg 56%
    07:00 +6°C° 0 mm 5 mps 761 mmHg 58%
    08:00 +8°C° 0 mm 6 mps 761 mmHg 54%
    09:00 +10°C° 0 mm 6 mps 761 mmHg 50%
    10:00 +11°C° 0 mm 6 mps 761 mmHg 46%
    11:00 +14°C° 0 mm 6 mps 760 mmHg 42%
    12:00 +15°C° 0 mm 6 mps 759 mmHg 39%
    13:00 +16°C° 0 mm 6 mps 759 mmHg 35%
    14:00 +16°C° 0 mm 6 mps 758 mmHg 37%
    15:00 +16°C° 0 mm 6 mps 758 mmHg 38%
    16:00 +16°C° 0 mm 6 mps 758 mmHg 39%
    17:00 +15°C° 0 mm 6 mps 758 mmHg 41%
    18:00 +14°C° 0 mm 6 mps 759 mmHg 42%
    19:00 +12°C° 0 mm 7 mps 759 mmHg 44%
    20:00 +11°C° 0 mm 7 mps 759 mmHg 47%
    21:00 +11°C° 0 mm 7 mps 759 mmHg 50%
    22:00 +10°C° 0 mm 7 mps 759 mmHg 53%
    23:00 +10°C° 0 mm 7 mps 759 mmHg 55%

    Day after tomorrow, 29 May, Wednesday

    Time Temperature Precipitation Wind Pressure Humidity
    00:00 +10°C° 0 mm 7 mps 759 mmHg 57%
    01:00 +10°C° 0 mm 7 mps 758 mmHg 59%
    02:00 +10°C° 0 mm 7 mps 758 mmHg 59%
    03:00 +10°C° 0 mm 7 mps 757 mmHg 59%
    04:00 +10°C° 0 mm 7 mps 757 mmHg 59%
    05:00 +10°C° 0 mm 7 mps 757 mmHg 60%
    06:00 +10°C° 0 mm 7 mps 757 mmHg 60%
    07:00 +10°C° 0 mm 7 mps 757 mmHg 61%
    08:00 +12°C° 0 mm 8 mps 757 mmHg 57%
    09:00 +13°C° 0 mm 8 mps 757 mmHg 53%
    10:00 +16°C° 0 mm 8 mps 757 mmHg 48%
    11:00 +16°C° 0 mm 8 mps 756 mmHg 47%
    12:00 +17°C° 0 mm 8 mps 755 mmHg 47%
    13:00 +17°C° 0 mm 8 mps 755 mmHg 46%
    14:00 +17°C° 0 mm 7 mps 755 mmHg 48%
    15:00 +16°C° 0 mm 7 mps 755 mmHg 50%
    16:00 +16°C° 0 mm 6 mps 755 mmHg 52%
    17:00 +15°C° 0 mm 6 mps 756 mmHg 54%
    18:00 +14°C° 0 mm 7 mps 757 mmHg 57%
    19:00 +12°C° 0 mm 7 mps 757 mmHg 59%
    20:00 +11°C° 0 mm 7 mps 758 mmHg 60%
    21:00 +10°C° 0 mm 6 mps 759 mmHg 60%
    22:00 +10°C° 0 mm 6 mps 759 mmHg 61%
    23:00 +9°C° 0 mm 6 mps 759 mmHg 61%

    30 May, Thursday

    Time Temperature Precipitation Wind Pressure Humidity
    00:00 +8°C° 0 mm 6 mps 760 mmHg 60%
    01:00 +8°C° 0 mm 6 mps 760 mmHg 59%
    02:00 +7°C° 0 mm 6 mps 760 mmHg 60%
    03:00 +5°C° 0 mm 6 mps 761 mmHg 61%
    04:00 +6°C° 0 mm 5 mps 761 mmHg 62%
    05:00 +5°C° 0 mm 5 mps 762 mmHg 63%
    06:00 +5°C° 0 mm 5 mps 762 mmHg 64%
    07:00 +5°C° 0 mm 5 mps 763 mmHg 65%
    08:00 +6°C° 0 mm 5 mps 763 mmHg 58%
    09:00 +8°C° 0 mm 4 mps 764 mmHg 51%
    10:00 +11°C° 0 mm 4 mps 764 mmHg 44%
    11:00 +12°C° 0 mm 4 mps 764 mmHg 39%
    12:00 +14°C° 0 mm 4 mps 764 mmHg 35%
    13:00 +15°C° 0 mm 4 mps 763 mmHg 31%
    14:00 +15°C° 0 mm 4 mps 764 mmHg 34%
    15:00 +14°C° 0 mm 3 mps 764 mmHg 37%
    16:00 +14°C° 0 mm 3 mps 764 mmHg 39%
    17:00 +12°C° 0 mm 3 mps 765 mmHg 42%
    18:00 +11°C° 0 mm 3 mps 766 mmHg 44%
    19:00 +9°C° 0 mm 3 mps 766 mmHg 46%
    20:00 +8°C° 0 mm 4 mps 767 mmHg 47%
    21:00 +7°C° 0 mm 4 mps 768 mmHg 48%
    22:00 +7°C° 0 mm 4 mps 768 mmHg 48%
    23:00 +6°C° 0 mm 4 mps 768 mmHg 51%

    31 May, Friday

    Time Temperature Precipitation Wind Pressure Humidity
    00:00 +6°C° 0 mm 4 mps 768 mmHg 54%
    01:00 +5°C° 0 mm 4 mps 768 mmHg 57%
    02:00 +5°C° 0 mm 4 mps 768 mmHg 60%
    03:00 +4°C° 0 mm 4 mps 768 mmHg 64%
    04:00 +4°C° 0 mm 4 mps 768 mmHg 67%
    05:00 +4°C° 0 mm 4 mps 769 mmHg 68%
    06:00 +4°C° 0 mm 4 mps 769 mmHg 69%
    07:00 +3°C° 0 mm 4 mps 769 mmHg 70%
    08:00 +6°C° 0 mm 4 mps 769 mmHg 63%
    09:00 +8°C° 0 mm 4 mps 769 mmHg 56%
    10:00 +11°C° 0 mm 4 mps 769 mmHg 48%
    11:00 +13°C° 0 mm 4 mps 769 mmHg 44%
    12:00 +16°C° 0 mm 3 mps 768 mmHg 40%
    13:00 +18°C° 0 mm 3 mps 768 mmHg 37%
    14:00 +18°C° 0 mm 3 mps 768 mmHg 42%
    15:00 +17°C° 0 mm 3 mps 768 mmHg 48%
    16:00 +17°C° 0 mm 3 mps 768 mmHg 54%
    17:00 +15°C° 0 mm 4 mps 768 mmHg 63%
    18:00 +13°C° 0 mm 4 mps 769 mmHg 71%
    19:00 +12°C° 0 mm 4 mps 769 mmHg 80%
    20:00 +12°C° 0.1 mm 5 mps 769 mmHg 80%
    21:00 +12°C° 0.1 mm 5 mps 769 mmHg 81%
    22:00 +11°C° 0.1 mm 6 mps 770 mmHg 81%
    23:00 +11°C° 0.1 mm 6 mps 770 mmHg 82%

    1 June, Saturday

    Time Temperature Precipitation Wind Pressure Humidity
    00:00 +12°C° 0.1 mm 5 mps 769 mmHg 83%
    01:00 +10°C° 0.1 mm 5 mps 769 mmHg 85%
    02:00 +10°C° 0.2 mm 5 mps 769 mmHg 84%
    03:00 +12°C° 0.2 mm 5 mps 769 mmHg 84%
    04:00 +12°C° 0.2 mm 5 mps 769 mmHg 83%
    05:00 +12°C° 0.4 mm 5 mps 769 mmHg 84%
    06:00 +12°C° 0.4 mm 5 mps 770 mmHg 84%
    07:00 +12°C° 0.4 mm 4 mps 770 mmHg 84%
    08:00 +13°C° 0.4 mm 4 mps 770 mmHg 82%
    09:00 +14°C° 0.4 mm 4 mps 770 mmHg 79%
    10:00 +15°C° 0.4 mm 4 mps 771 mmHg 76%
    11:00 +15°C° 0.3 mm 4 mps 770 mmHg 78%
    12:00 +15°C° 0.3 mm 4 mps 769 mmHg 80%
    13:00 +17°C° 0.3 mm 4 mps 769 mmHg 83%
    14:00 +17°C° 0.4 mm 4 mps 768 mmHg 83%
    15:00 +16°C° 0.4 mm 5 mps 768 mmHg 84%
    16:00 +16°C° 0.4 mm 5 mps 768 mmHg 84%
    17:00 +15°C° 0.6 mm 4 mps 769 mmHg 88%
    18:00 +14°C° 0.6 mm 3 mps 769 mmHg 91%
    19:00 +15°C° 0.6 mm 2 mps 770 mmHg 94%
    20:00 +14°C° 0.6 mm 2 mps 769 mmHg 94%
    21:00 +14°C° 0.6 mm 2 mps 769 mmHg 94%
    22:00 +14°C° 0.6 mm 2 mps 769 mmHg 95%
    23:00 +14°C° 0.7 mm 2 mps 769 mmHg 95%
    Show more